TimeEST,TemperatureF,Dew PointF,Humidity,Sea Level PressureIn,VisibilityMPH,Wind Direction,Wind SpeedMPH,Gust SpeedMPH,PrecipitationIn,Events,Conditions,WindDirDegrees,DateUTC
12:51 AM,19.9,16.0,85,29.96,10.0,Calm,Calm,-,N/A,,Clear,0,2012-12-29 05:51:00
1:51 AM,17.6,14.0,86,29.97,10.0,Calm,Calm,-,N/A,,Clear,0,2012-12-29 06:51:00
2:51 AM,18.0,14.0,84,29.97,10.0,Calm,Calm,-,N/A,,Clear,0,2012-12-29 07:51:00
3:51 AM,16.0,12.9,88,29.97,10.0,Calm,Calm,-,N/A,,Clear,0,2012-12-29 08:51:00
4:51 AM,14.0,12.0,92,29.97,10.0,Calm,Calm,-,N/A,,Clear,0,2012-12-29 09:51:00
5:51 AM,14.0,12.0,92,29.98,10.0,Calm,Calm,-,N/A,,Clear,0,2012-12-29 10:51:00
6:51 AM,15.1,12.0,88,29.99,10.0,Calm,Calm,-,N/A,,Clear,0,2012-12-29 11:51:00
7:51 AM,15.1,12.0,88,29.97,9.0,NNW,3.5,-,N/A,,Clear,340,2012-12-29 12:51:00
8:51 AM,19.9,16.0,85,29.97,10.0,West,3.5,-,N/A,,Clear,270,2012-12-29 13:51:00
9:51 AM,21.9,19.0,89,29.99,10.0,NW,3.5,-,N/A,,Overcast,310,2012-12-29 14:51:00
10:51 AM,26.1,19.0,75,29.95,10.0,NNW,3.5,-,N/A,,Overcast,340,2012-12-29 15:51:00
11:51 AM,28.9,18.0,64,29.91,10.0,North,8.1,-,N/A,,Overcast,360,2012-12-29 16:51:00
12:27 PM,28.4,17.6,64,29.85,3.0,NNE,9.2,-,0.00,Snow,Light Snow,20,2012-12-29 17:27:00
12:51 PM,28.9,18.0,64,29.87,3.0,NNE,4.6,-,0.00,Snow,Light Snow,30,2012-12-29 17:51:00
1:51 PM,28.0,19.0,69,29.83,3.0,NNE,6.9,-,0.00,,Haze,30,2012-12-29 18:51:00
2:11 PM,28.4,19.4,69,29.84,1.0,NNE,4.6,-,0.00,Snow,Light Snow,30,2012-12-29 19:11:00
2:51 PM,26.1,23.0,88,29.81,0.5,NNE,8.1,-,0.02,Fog-Snow,Snow,30,2012-12-29 19:51:00
3:02 PM,26.6,23.0,86,29.79,0.2,NE,8.1,-,0.01,Fog-Snow,Snow,40,2012-12-29 20:02:00
3:13 PM,26.6,24.8,93,29.79,0.5,NE,6.9,-,N/A,Fog-Snow,Snow,50,2012-12-29 20:13:00
3:51 PM,28.0,25.0,88,29.78,1.5,NNE,5.8,-,0.03,Snow,Light Snow,30,2012-12-29 20:51:00
4:24 PM,26.6,24.8,93,29.75,0.8,NNE,8.1,-,0.01,Snow,Light Snow,30,2012-12-29 21:24:00
4:46 PM,26.6,24.8,93,29.75,0.5,NNE,5.8,-,0.01,Fog-Snow,Light Snow,30,2012-12-29 21:46:00
4:51 PM,27.0,24.1,89,29.75,0.5,NNE,6.9,-,0.02,Fog-Snow,Light Snow,30,2012-12-29 21:51:00
4:58 PM,26.6,24.8,93,29.73,1.0,NNE,6.9,-,0.00,Snow,Light Snow,20,2012-12-29 21:58:00
5:48 PM,26.6,24.8,93,29.69,4.0,NNE,12.7,-,0.01,Snow,Light Snow,20,2012-12-29 22:48:00
5:51 PM,27.0,24.1,89,29.69,4.0,NNE,11.5,-,0.01,Snow,Light Snow,20,2012-12-29 22:51:00
6:07 PM,26.6,24.8,93,29.68,1.5,NNE,12.7,-,0.00,Snow,Light Snow,30,2012-12-29 23:07:00
6:35 PM,26.6,24.8,93,29.65,8.0,NNE,12.7,-,0.00,Snow,Light Snow,30,2012-12-29 23:35:00
6:51 PM,28.0,25.0,88,29.66,2.0,NNE,12.7,-,0.00,Snow,Light Snow,30,2012-12-29 23:51:00
6:53 PM,28.4,24.8,86,29.66,0.8,NE,15.0,-,0.00,Snow,Light Snow,40,2012-12-29 23:53:00
7:41 PM,26.6,24.8,93,29.61,0.8,NNE,13.8,-,0.02,Snow,Light Snow,30,2012-12-30 00:41:00
7:51 PM,27.0,24.1,89,29.60,0.8,NNE,13.8,-,0.03,Snow,Light Snow,20,2012-12-30 00:51:00
8:51 PM,26.1,23.0,88,29.54,0.5,North,15.0,-,0.07,Fog-Snow,Snow,10,2012-12-30 01:51:00
9:51 PM,25.0,21.9,88,29.49,0.5,North,17.3,-,0.03,Fog-Snow,Snow,360,2012-12-30 02:51:00
10:51 PM,25.0,21.9,88,29.49,0.5,North,17.3,-,0.03,Fog-Snow,Snow,360,2012-12-30 03:51:00
11:39 PM,24.8,21.2,86,29.46,0.8,North,16.1,-,0.03,Snow,Light Snow,360,2012-12-30 04:39:00
11:51 PM,24.1,21.0,88,29.46,1.0,North,16.1,-,0.03,Snow,Light Snow,360,2012-12-30 04:51:00